TimeCST,TemperatureF,Dew PointF,Humidity,Sea Level PressureIn,VisibilityMPH,Wind Direction,Wind SpeedMPH,Gust SpeedMPH,PrecipitationIn,Events,Conditions,WindDirDegrees,DateUTC
12:01 AM,30.2,26.6,86,29.77,10.0,NW,6.9,-,N/A,,Overcast,320,2014-01-20 06:01:00
12:21 AM,30.2,26.6,86,29.77,10.0,NW,6.9,-,N/A,,Overcast,320,2014-01-20 06:21:00
12:41 AM,30.2,26.6,86,29.78,10.0,NW,6.9,-,N/A,,Overcast,310,2014-01-20 06:41:00
1:01 AM,30.2,26.6,86,29.78,10.0,WNW,6.9,-,N/A,,Overcast,290,2014-01-20 07:01:00
1:21 AM,30.2,26.6,86,29.78,10.0,WNW,6.9,-,N/A,,Overcast,290,2014-01-20 07:21:00
1:41 AM,-9999,-9999,N/A,29.78,10.0,WNW,6.9,-,N/A,,Overcast,300,2014-01-20 07:41:00
2:01 AM,30.2,26.6,86,29.79,10.0,WNW,6.9,-,N/A,,Overcast,300,2014-01-20 08:01:00
2:21 AM,28.4,26.6,93,29.79,10.0,NW,6.9,-,N/A,,Scattered Clouds,310,2014-01-20 08:21:00
2:41 AM,28.4,26.6,93,29.80,10.0,NW,5.8,-,N/A,,Clear,310,2014-01-20 08:41:00
3:01 AM,28.4,26.6,93,29.81,10.0,NNW,6.9,-,N/A,,Clear,330,2014-01-20 09:01:00
3:21 AM,28.4,26.6,93,29.82,10.0,NNW,8.1,-,N/A,,Clear,330,2014-01-20 09:21:00
3:41 AM,28.4,24.8,86,29.83,10.0,North,9.2,-,N/A,,Clear,350,2014-01-20 09:41:00
4:01 AM,26.6,24.8,93,29.83,10.0,North,10.4,-,N/A,,Scattered Clouds,0,2014-01-20 10:01:00
4:21 AM,26.6,24.8,93,29.84,10.0,North,12.7,17.3,N/A,,Overcast,10,2014-01-20 10:21:00
4:41 AM,26.6,24.8,93,29.85,10.0,North,13.8,-,N/A,,Overcast,10,2014-01-20 10:41:00
5:01 AM,24.8,23.0,93,29.84,10.0,North,8.1,-,N/A,,Overcast,10,2014-01-20 11:01:00
5:21 AM,24.8,21.2,86,29.84,10.0,North,6.9,-,N/A,,Mostly Cloudy,10,2014-01-20 11:21:00
5:41 AM,23.0,21.2,93,29.84,10.0,NNE,10.4,-,N/A,,Mostly Cloudy,20,2014-01-20 11:41:00
6:01 AM,23.0,21.2,93,29.85,10.0,North,15.0,-,N/A,,Overcast,10,2014-01-20 12:01:00
6:21 AM,23.0,21.2,93,29.86,10.0,North,10.4,-,N/A,,Overcast,10,2014-01-20 12:21:00
6:41 AM,21.2,19.4,93,29.87,10.0,North,13.8,-,N/A,,Overcast,10,2014-01-20 12:41:00
7:01 AM,21.2,19.4,93,29.87,10.0,North,11.5,-,N/A,,Overcast,10,2014-01-20 13:01:00
7:21 AM,21.2,19.4,93,29.88,10.0,North,8.1,-,N/A,,Overcast,10,2014-01-20 13:21:00
7:41 AM,21.2,19.4,93,29.89,10.0,North,8.1,-,N/A,,Overcast,10,2014-01-20 13:41:00
8:01 AM,21.2,19.4,93,29.91,10.0,North,8.1,-,N/A,,Overcast,10,2014-01-20 14:01:00
8:21 AM,21.2,19.4,93,29.92,10.0,North,6.9,-,N/A,,Overcast,0,2014-01-20 14:21:00
8:41 AM,19.4,17.6,93,29.93,10.0,North,9.2,-,N/A,,Overcast,10,2014-01-20 14:41:00
9:21 AM,19.4,17.6,93,29.96,10.0,North,11.5,-,N/A,,Overcast,10,2014-01-20 15:21:00
9:41 AM,19.4,17.6,93,29.97,7.0,North,11.5,-,N/A,,Overcast,0,2014-01-20 15:41:00
10:01 AM,19.4,17.6,93,29.99,5.0,North,12.7,-,N/A,,Overcast,10,2014-01-20 16:01:00
10:21 AM,19.4,17.6,93,30.00,1.5,North,16.1,-,N/A,,Overcast,10,2014-01-20 16:21:00
10:41 AM,-9999,-9999,N/A,30.02,1.2,NE,13.8,-,N/A,,Overcast,50,2014-01-20 16:41:00
11:01 AM,17.6,15.8,93,30.02,1.5,NE,18.4,-,N/A,,Overcast,40,2014-01-20 17:01:00
11:21 AM,17.6,14.0,86,30.04,1.8,NE,13.8,21.9,N/A,,Overcast,50,2014-01-20 17:21:00
11:41 AM,17.6,14.0,86,30.04,1.8,NE,18.4,21.9,N/A,,Overcast,50,2014-01-20 17:41:00
12:01 PM,17.6,14.0,86,30.06,1.2,NE,19.6,-,N/A,,Overcast,40,2014-01-20 18:01:00
12:41 PM,15.8,10.4,79,30.09,2.5,NE,20.7,27.6,N/A,,Overcast,40,2014-01-20 18:41:00
1:01 PM,14.0,8.6,79,30.09,2.0,NE,19.6,26.5,N/A,,Overcast,50,2014-01-20 19:01:00
1:21 PM,12.2,8.6,85,30.12,1.8,NE,17.3,-,N/A,,Overcast,40,2014-01-20 19:21:00
1:41 PM,12.2,6.8,79,30.14,4.0,NE,19.6,24.2,N/A,,Overcast,40,2014-01-20 19:41:00
2:01 PM,12.2,6.8,79,30.15,4.0,NE,20.7,27.6,N/A,,Overcast,40,2014-01-20 20:01:00
2:35 PM,10.4,5.0,79,30.19,3.0,NNE,23.0,27.6,N/A,Snow,Light Snow,30,2014-01-20 20:35:00
2:54 PM,8.6,3.2,79,30.21,1.5,NNE,24.2,28.8,N/A,Snow,Light Snow,30,2014-01-20 20:54:00
3:14 PM,8.6,3.2,79,30.24,1.0,NNE,26.5,31.1,N/A,Snow,Light Snow,20,2014-01-20 21:14:00
3:34 PM,6.8,3.2,85,30.26,0.8,NNE,26.5,29.9,N/A,Snow,Light Snow,20,2014-01-20 21:34:00
3:54 PM,6.8,1.4,79,30.28,1.2,NNE,26.5,32.2,N/A,Snow,Light Snow,30,2014-01-20 21:54:00
4:04 PM,6.8,1.4,79,30.30,2.0,NNE,21.9,32.2,N/A,Snow,Light Snow,30,2014-01-20 22:04:00
4:21 PM,5.0,1.4,85,30.32,1.0,North,20.7,28.8,N/A,,Overcast,0,2014-01-20 22:21:00
4:58 PM,3.2,-0.4,85,30.34,4.0,North,19.6,29.9,N/A,,Overcast,0,2014-01-20 22:58:00
5:18 PM,1.4,-2.2,85,30.36,2.5,North,21.9,28.8,N/A,,Overcast,0,2014-01-20 23:18:00
5:38 PM,-0.4,-4.0,85,30.38,5.0,North,17.3,27.6,N/A,,Overcast,0,2014-01-20 23:38:00
5:44 PM,-0.4,-5.8,78,30.38,5.0,North,16.1,26.5,N/A,,Overcast,350,2014-01-20 23:44:00
6:01 PM,-2.2,-5.8,85,30.40,7.0,North,16.1,28.8,N/A,,Overcast,350,2014-01-21 00:01:00
6:35 PM,-5.8,-9.4,84,30.43,4.0,North,19.6,28.8,N/A,,Scattered Clouds,0,2014-01-21 00:35:00
6:41 PM,-5.8,-9.4,84,30.43,7.0,North,20.7,27.6,N/A,,Scattered Clouds,350,2014-01-21 00:41:00
7:01 PM,-5.8,-9.4,84,30.46,7.0,North,17.3,27.6,N/A,,Scattered Clouds,0,2014-01-21 01:01:00
7:21 PM,-7.6,-11.2,84,30.47,5.0,North,23.0,26.5,N/A,,Overcast,0,2014-01-21 01:21:00
7:41 PM,-7.6,-11.2,84,30.49,7.0,North,16.1,25.3,N/A,,Mostly Cloudy,0,2014-01-21 01:41:00
8:01 PM,-9.4,-13.0,84,30.49,10.0,North,19.6,25.3,N/A,,Scattered Clouds,350,2014-01-21 02:01:00
8:21 PM,-9.4,-14.8,77,30.50,10.0,North,17.3,23.0,N/A,,Clear,350,2014-01-21 02:21:00
9:01 PM,-11.2,-16.6,77,30.52,10.0,North,18.4,21.9,N/A,,Clear,350,2014-01-21 03:01:00
9:21 PM,-11.2,-16.6,77,30.52,10.0,North,13.8,26.5,N/A,,Clear,350,2014-01-21 03:21:00
9:41 PM,-11.2,-16.6,77,30.52,10.0,North,16.1,19.6,N/A,,Clear,350,2014-01-21 03:41:00
10:01 PM,-11.2,-16.6,77,30.53,10.0,NNW,12.7,-,N/A,,Clear,340,2014-01-21 04:01:00
10:21 PM,-13.0,-18.4,77,30.53,10.0,North,11.5,-,N/A,,Clear,350,2014-01-21 04:21:00
10:41 PM,-13.0,-18.4,77,30.53,10.0,North,11.5,-,N/A,,Clear,350,2014-01-21 04:41:00
11:01 PM,-14.8,-18.4,84,30.53,10.0,North,13.8,-,N/A,,Clear,350,2014-01-21 05:01:00
11:21 PM,-14.8,-18.4,84,30.54,10.0,NNW,12.7,-,N/A,,Clear,340,2014-01-21 05:21:00
11:41 PM,-14.8,-18.4,84,30.54,10.0,NNW,11.5,18.4,N/A,,Clear,340,2014-01-21 05:41:00